Date String (YYYY-MM-DD hh:mm:ss) UTC,Instrument flags,absolute air pressure of the measurement (hPa),sample flow rate (lpm),inlet stack bypass flow (lpm),air temperature of the measurement (°C),ambient temperature measured by the external sensor (°C),aerosol sample conditioner tube jacket temperature (°C),OPC LED temperature (°C),internal box temperature (°C),relative humidity of the measurement (%),span deviation,mass concentration of particles derived from Lorenz-Mie calculation of OPC scattering (μg/m³),mass concentration of particles derived from Lorenz-Mie calculation of OPC scattering (μg/m³),mass concentration of particles derived from Lorenz-Mie calculation of OPC scattering (μg/m³)
DateTimeUTC,F1_M11,P_M11,Q1_M11,Q2_M11,T1_M11,T2_M11,T3_M11,T4_M11,T5_M11,U1_M11,ZSPAN_M11,X2_M11,X0_M11,X1_M11
2023-08-12 13:00:00,SystemResetWarning,0832.8,5.00,000.00,029.5,027.9,000.0,038.1,031.1,27.0,0000.0,0004.28,0010.09,0003.72
2023-08-12 13:01:00,SystemResetWarning,0832.8,5.00,000.00,029.5,028.0,000.0,038.1,031.1,26.9,0000.0,0004.24,0009.45,0003.71
2023-08-12 13:02:00,SystemResetWarning,0832.9,5.00,000.00,029.5,028.1,000.0,038.1,031.1,26.8,0000.0,0004.25,0009.40,0003.70
2023-08-12 13:03:00,SystemResetWarning,0832.8,4.99,000.00,029.5,028.2,000.0,038.1,031.2,26.7,0000.0,0004.20,0009.22,0003.69
2023-08-12 13:04:00,SystemResetWarning,0832.9,5.01,000.00,029.6,028.3,000.0,038.1,031.2,26.7,0000.0,0004.18,0008.84,0003.68
2023-08-12 13:05:00,SystemResetWarning,0833.0,5.00,000.00,029.6,028.4,000.0,038.1,031.2,26.6,0000.0,0004.16,0008.94,0003.68
2023-08-12 13:06:00,SystemResetWarning,0833.0,5.00,000.00,029.6,028.4,000.0,038.1,031.3,26.6,0000.0,0004.21,0009.34,0003.69
2023-08-12 13:07:00,SystemResetWarning,0833.3,5.00,000.00,029.6,028.5,000.0,038.1,031.3,26.5,0000.0,0004.25,0009.39,0003.70
2023-08-12 13:08:00,SystemResetWarning,0833.3,5.00,000.00,029.7,028.5,000.0,038.2,031.3,26.6,0000.0,0004.24,0009.23,0003.72
2023-08-12 13:09:00,SystemResetWarning,0833.1,5.00,000.00,029.7,028.5,000.0,038.2,031.3,26.4,0000.0,0004.23,0009.04,0003.73
2023-08-12 13:10:00,SystemResetWarning,0832.9,5.00,000.00,029.7,028.6,000.0,038.2,031.4,26.0,0000.0,0004.25,0008.48,0003.74
2023-08-12 13:11:00,SystemResetWarning,0832.9,4.99,000.00,029.7,028.5,000.0,038.2,031.4,26.2,0000.0,0004.27,0008.34,0003.75
2023-08-12 13:12:00,SystemResetWarning,0832.9,5.00,000.00,029.7,026.9,000.0,038.1,031.1,26.1,0000.0,0004.32,0009.09,0003.77
2023-08-12 13:13:00,SystemResetWarning,0833.2,5.01,000.00,029.6,025.8,000.0,038.0,030.9,26.3,0000.0,0004.31,0009.37,0003.78
2023-08-12 13:14:00,SystemResetWarning,0833.3,5.01,000.00,029.6,025.9,000.0,038.0,030.8,26.4,0000.0,0004.34,0009.52,0003.79
2023-08-12 13:15:00,SystemResetWarning,0833.1,5.00,000.00,029.5,026.1,000.0,038.0,030.7,26.6,0000.0,0004.38,0009.29,0003.82
2023-08-12 13:16:00,SystemResetWarning,0833.4,5.00,000.00,029.4,026.5,000.0,038.0,030.8,26.7,0000.0,0004.38,0009.00,0003.83
2023-08-12 13:17:00,SystemResetWarning,0833.2,5.00,000.00,029.4,026.8,000.0,038.0,030.9,26.8,0000.0,0004.37,0008.90,0003.84
2023-08-12 13:18:00,SystemResetWarning,0833.3,4.99,000.00,029.4,027.1,000.0,038.1,031.0,26.7,0000.0,0004.32,0008.85,0003.83
2023-08-12 13:19:00,SystemResetWarning,0832.9,5.00,000.00,029.4,027.4,000.0,038.1,031.0,26.8,0000.0,0004.33,0008.86,0003.84
2023-08-12 13:20:00,SystemResetWarning,0833.0,5.00,000.00,029.5,027.6,000.0,038.1,031.1,26.9,0000.0,0004.36,0008.90,0003.86
2023-08-12 13:21:00,SystemResetWarning,0833.1,5.00,000.00,029.5,027.8,000.0,038.1,031.1,26.9,0000.0,0004.37,0009.00,0003.87
2023-08-12 13:22:00,SystemResetWarning,0832.9,5.00,000.00,029.5,028.0,000.0,038.1,031.1,26.9,0000.0,0004.43,0009.37,0003.88
2023-08-12 13:23:00,SystemResetWarning,0832.9,4.99,000.00,029.5,028.1,000.0,038.1,031.2,27.0,0000.0,0004.43,0008.90,0003.88
2023-08-12 13:24:00,SystemResetWarning,0832.9,5.00,000.00,029.6,028.2,000.0,038.1,031.2,26.9,0000.0,0004.45,0008.62,0003.90
2023-08-12 13:25:00,SystemResetWarning,0833.0,5.00,000.00,029.6,028.3,000.0,038.1,031.3,27.0,0000.0,0004.49,0008.49,0003.91
2023-08-12 13:26:00,SystemResetWarning,0832.9,5.00,000.00,029.6,028.4,000.0,038.1,031.3,26.9,0000.0,0004.46,0008.43,0003.90
2023-08-12 13:27:00,SystemResetWarning,0833.0,5.01,000.00,029.6,028.4,000.0,038.1,031.3,26.8,0000.0,0004.47,0008.50,0003.92
2023-08-12 13:28:00,SystemResetWarning,0833.0,5.01,000.00,029.7,028.5,000.0,038.2,031.3,26.7,0000.0,0004.51,0008.47,0003.92
2023-08-12 13:29:00,SystemResetWarning,0833.0,5.01,000.00,029.7,028.6,000.0,038.2,031.4,26.7,0000.0,0004.57,0008.54,0003.94
2023-08-12 13:30:00,SystemResetWarning,0833.0,4.99,000.00,029.7,028.6,000.0,038.2,031.4,26.7,0000.0,0004.60,0008.99,0003.94
2023-08-12 13:31:00,SystemResetWarning,0832.9,4.99,000.00,029.7,027.2,000.0,038.1,031.2,26.8,0000.0,0004.60,0009.59,0003.94
2023-08-12 13:32:00,SystemResetWarning,0832.9,5.02,000.00,029.6,025.8,000.0,038.0,030.9,26.8,0000.0,0004.61,0009.66,0003.95
2023-08-12 13:33:00,SystemResetWarning,0833.0,5.01,000.00,029.6,025.7,000.0,037.9,030.8,26.8,0000.0,0004.58,0009.47,0003.94
2023-08-12 13:34:00,SystemResetWarning,0832.9,5.00,000.00,029.5,026.0,000.0,038.0,030.7,27.1,0000.0,0004.59,0009.26,0003.95
2023-08-12 13:35:00,SystemResetWarning,0833.0,5.00,000.00,029.4,026.3,000.0,038.0,030.8,27.1,0000.0,0004.56,0009.24,0003.94
2023-08-12 13:36:00,SystemResetWarning,0833.0,5.00,000.00,029.4,026.7,000.0,038.0,030.9,27.3,0000.0,0004.56,0009.17,0003.94
2023-08-12 13:37:00,SystemResetWarning,0833.3,5.00,000.00,029.4,027.0,000.0,038.0,031.0,27.1,0000.0,0004.56,0009.22,0003.96
2023-08-12 13:38:00,SystemResetWarning,0833.2,5.00,000.00,029.4,027.3,000.0,038.0,031.0,26.9,0000.0,0004.55,0009.30,0003.94
2023-08-12 13:39:00,SystemResetWarning,0833.3,5.00,000.00,029.4,027.5,000.0,038.0,031.0,26.8,0000.0,0004.50,0009.15,0003.94
2023-08-12 13:40:00,SystemResetWarning,0833.4,5.00,000.00,029.5,027.7,000.0,038.0,031.1,26.8,0000.0,0004.50,0009.60,0003.94
2023-08-12 13:41:00,SystemResetWarning,0833.4,5.00,000.00,029.5,027.9,000.0,038.0,031.1,26.8,0000.0,0004.47,0009.16,0003.94
2023-08-12 13:42:00,SystemResetWarning,0833.2,5.00,000.00,029.5,028.0,000.0,038.1,031.2,26.7,0000.0,0004.46,0008.64,0003.93
2023-08-12 13:43:00,SystemResetWarning,0833.1,5.00,000.00,029.5,028.1,000.0,038.1,031.2,26.6,0000.0,0004.46,0008.64,0003.93
2023-08-12 13:44:00,SystemResetWarning,0833.1,5.00,000.00,029.6,028.2,000.0,038.1,031.2,26.6,0000.0,0004.48,0008.58,0003.94
2023-08-12 13:45:00,SystemResetWarning,0833.0,5.00,000.00,029.6,028.3,000.0,038.1,031.3,26.8,0000.0,0004.49,0008.50,0003.95
2023-08-12 13:46:00,SystemResetWarning,0833.4,5.00,000.00,029.6,028.4,000.0,038.1,031.3,26.8,0000.0,0004.49,0008.50,0003.96
2023-08-12 13:47:00,SystemResetWarning,0833.2,5.01,000.00,029.6,028.4,000.0,038.1,031.3,26.9,0000.0,0004.47,0008.43,0003.96
2023-08-12 13:48:00,SystemResetWarning,0833.1,5.00,000.00,029.7,028.5,000.0,038.2,031.3,27.3,0000.0,0004.49,0008.35,0003.97
2023-08-12 13:49:00,SystemResetWarning,0833.1,4.99,000.00,029.7,028.6,000.0,038.2,031.4,27.6,0000.0,0004.53,0008.25,0003.99
2023-08-12 13:50:00,SystemResetWarning,0833.1,4.98,000.00,029.7,027.6,000.0,038.1,031.2,27.3,0000.0,0004.55,0008.22,0004.00
2023-08-12 13:51:00,SystemResetWarning,0833.1,5.01,000.00,029.6,026.0,000.0,038.0,031.0,26.9,0000.0,0004.53,0007.96,0004.01
2023-08-12 13:52:00,SystemResetWarning,0833.2,5.00,000.00,029.6,025.7,000.0,037.9,030.8,27.7,0000.0,0004.56,0009.39,0004.02
2023-08-12 13:53:00,SystemResetWarning,0833.2,5.01,000.00,029.5,026.0,000.0,037.9,030.7,28.2,0000.0,0004.56,0009.58,0004.03
2023-08-12 13:54:00,SystemResetWarning,0833.1,5.01,000.00,029.4,026.3,000.0,038.0,030.7,28.1,0000.0,0004.56,0009.60,0004.03
2023-08-12 13:55:00,SystemResetWarning,0833.2,4.99,000.00,029.4,026.6,000.0,038.0,030.8,27.8,0000.0,0004.55,0009.60,0004.03
2023-08-12 13:56:00,SystemResetWarning,0833.2,5.00,000.00,029.4,027.0,000.0,038.0,030.9,26.7,0000.0,0004.54,0009.60,0004.02
2023-08-12 13:57:00,SystemResetWarning,0833.2,5.00,000.00,029.4,027.2,000.0,038.0,031.0,27.3,0000.0,0004.56,0009.65,0004.02
2023-08-12 13:58:00,SystemResetWarning,0833.2,5.00,000.00,029.4,027.5,000.0,038.0,031.0,27.5,0000.0,0004.56,0009.63,0004.02
2023-08-12 13:59:00,SystemResetWarning,0833.2,4.99,000.00,029.4,027.7,000.0,038.0,031.1,27.6,0000.0,0004.58,0009.83,0004.01
